Time,TemperatureF,DewpointF,PressureIn,WindDirection,WindDirectionDegrees,WindSpeedMPH,WindSpeedGustMPH,Humidity,HourlyPrecipIn,Conditions,Clouds,dailyrainin,SoftwareType,DateUTC
2013-02-27 00:11:00,36.0,1.0,-100.00,East,91,6.0,15.0,22,0.00,,,0.00,,2013-02-27 08:11:00,
2013-02-27 00:21:00,36.0,1.0,-100.00,East,91,6.0,15.0,22,0.00,,,0.00,,2013-02-27 08:21:00,
2013-02-27 00:31:00,36.0,1.0,-100.00,East,91,6.0,15.0,22,0.00,,,0.00,,2013-02-27 08:31:00,
2013-02-27 00:41:00,36.0,1.0,-100.00,East,91,6.0,15.0,22,0.00,,,0.00,,2013-02-27 08:41:00,
2013-02-27 00:52:00,36.0,1.0,-100.00,East,91,6.0,15.0,22,0.00,,,0.00,,2013-02-27 08:52:00,
2013-02-27 01:11:00,36.0,0.0,-100.00,East,91,7.0,11.0,21,0.00,,,0.00,,2013-02-27 09:11:00,
2013-02-27 01:21:00,36.0,0.0,-100.00,East,91,7.0,11.0,21,0.00,,,0.00,,2013-02-27 09:21:00,
2013-02-27 01:32:00,36.0,0.0,-100.00,East,91,7.0,11.0,21,0.00,,,0.00,,2013-02-27 09:32:00,
2013-02-27 01:41:00,36.0,0.0,-100.00,East,91,7.0,11.0,21,0.00,,,0.00,,2013-02-27 09:41:00,
2013-02-27 01:51:00,36.0,0.0,-100.00,East,91,7.0,11.0,21,0.00,,,0.00,,2013-02-27 09:51:00,
2013-02-27 02:12:00,35.0,1.0,-100.00,East,91,7.0,13.0,23,0.00,,,0.00,,2013-02-27 10:12:00,
2013-02-27 02:21:00,35.0,1.0,-100.00,East,91,7.0,13.0,23,0.00,,,0.00,,2013-02-27 10:21:00,
2013-02-27 02:32:00,35.0,1.0,-100.00,East,91,7.0,13.0,23,0.00,,,0.00,,2013-02-27 10:32:00,
2013-02-27 02:42:00,35.0,1.0,-100.00,East,91,7.0,13.0,23,0.00,,,0.00,,2013-02-27 10:42:00,
2013-02-27 02:52:00,35.0,1.0,-100.00,East,91,7.0,13.0,23,0.00,,,0.00,,2013-02-27 10:52:00,
2013-02-27 03:22:00,35.0,2.0,-100.00,East,89,8.0,14.0,24,0.00,,,0.00,,2013-02-27 11:22:00,
2013-02-27 03:32:00,35.0,2.0,-100.00,East,89,8.0,14.0,24,0.00,,,0.00,,2013-02-27 11:32:00,
2013-02-27 03:41:00,35.0,2.0,-100.00,East,89,8.0,14.0,24,0.00,,,0.00,,2013-02-27 11:41:00,
2013-02-27 03:52:00,35.0,2.0,-100.00,East,89,8.0,14.0,24,0.00,,,0.00,,2013-02-27 11:52:00,
2013-02-27 04:22:00,34.0,2.0,-100.00,East,91,7.0,11.0,25,0.00,,,0.00,,2013-02-27 12:22:00,
2013-02-27 04:32:00,34.0,2.0,-100.00,East,91,7.0,11.0,25,0.00,,,0.00,,2013-02-27 12:32:00,
2013-02-27 04:42:00,34.0,2.0,-100.00,East,91,7.0,11.0,25,0.00,,,0.00,,2013-02-27 12:42:00,
2013-02-27 04:52:00,34.0,2.0,-100.00,East,91,7.0,11.0,25,0.00,,,0.00,,2013-02-27 12:52:00,
2013-02-27 05:22:00,34.0,4.0,-100.00,East,91,7.0,12.0,27,0.00,,,0.00,,2013-02-27 13:22:00,
2013-02-27 05:32:00,34.0,4.0,-100.00,East,91,7.0,12.0,27,0.00,,,0.00,,2013-02-27 13:32:00,
2013-02-27 05:42:00,34.0,4.0,-100.00,East,91,7.0,12.0,27,0.00,,,0.00,,2013-02-27 13:42:00,
2013-02-27 05:52:00,34.0,4.0,-100.00,East,91,7.0,12.0,27,0.00,,,0.00,,2013-02-27 13:52:00,
2013-02-27 06:21:00,34.0,3.0,-100.00,East,94,7.0,13.0,26,0.00,,,0.00,,2013-02-27 14:21:00,
2013-02-27 06:31:00,34.0,3.0,-100.00,East,94,7.0,13.0,26,0.00,,,0.00,,2013-02-27 14:31:00,
2013-02-27 06:42:00,34.0,3.0,-100.00,East,94,7.0,13.0,26,0.00,,,0.00,,2013-02-27 14:42:00,
2013-02-27 06:52:00,34.0,3.0,-100.00,East,94,7.0,13.0,26,0.00,,,0.00,,2013-02-27 14:52:00,
2013-02-27 07:12:00,31.0,3.0,-100.00,SE,127,6.0,13.0,30,0.00,,,0.00,,2013-02-27 15:12:00,
2013-02-27 07:22:00,31.0,3.0,-100.00,SE,127,6.0,13.0,30,0.00,,,0.00,,2013-02-27 15:22:00,
2013-02-27 07:32:00,31.0,3.0,-100.00,SE,127,6.0,13.0,30,0.00,,,0.00,,2013-02-27 15:32:00,
2013-02-27 07:41:00,31.0,3.0,-100.00,SE,127,6.0,13.0,30,0.00,,,0.00,,2013-02-27 15:41:00,
2013-02-27 07:51:00,31.0,3.0,-100.00,SE,127,6.0,13.0,30,0.00,,,0.00,,2013-02-27 15:51:00,
2013-02-27 08:11:00,35.0,7.0,-100.00,ESE,116,5.0,8.0,30,0.00,,,0.00,,2013-02-27 16:11:00,
2013-02-27 08:22:00,35.0,7.0,-100.00,ESE,116,5.0,8.0,30,0.00,,,0.00,,2013-02-27 16:22:00,
2013-02-27 08:32:00,35.0,7.0,-100.00,ESE,116,5.0,8.0,30,0.00,,,0.00,,2013-02-27 16:32:00,
2013-02-27 08:42:00,35.0,7.0,-100.00,ESE,116,5.0,8.0,30,0.00,,,0.00,,2013-02-27 16:42:00,
2013-02-27 08:51:00,35.0,7.0,-100.00,ESE,116,5.0,8.0,30,0.00,,,0.00,,2013-02-27 16:51:00,
2013-02-27 09:21:00,44.0,10.0,-100.00,ESE,117,4.0,8.0,25,0.00,,,0.00,,2013-02-27 17:21:00,
2013-02-27 09:32:00,44.0,10.0,-100.00,ESE,117,4.0,8.0,25,0.00,,,0.00,,2013-02-27 17:32:00,
2013-02-27 09:41:00,44.0,10.0,-100.00,ESE,117,4.0,8.0,25,0.00,,,0.00,,2013-02-27 17:41:00,
2013-02-27 09:52:00,44.0,10.0,-100.00,ESE,117,4.0,8.0,25,0.00,,,0.00,,2013-02-27 17:52:00,
2013-02-27 10:11:00,49.0,10.0,-100.00,NW,310,3.0,7.0,20,0.00,,,-99.99,,2013-02-27 18:11:00,
2013-02-27 10:22:00,49.0,10.0,-100.00,NW,310,3.0,7.0,20,0.00,,,-99.99,,2013-02-27 18:22:00,
2013-02-27 11:21:00,52.0,12.0,-100.00,SW,224,4.0,12.0,20,0.00,,,0.00,,2013-02-27 19:21:00,
2013-02-27 11:51:00,52.0,12.0,-100.00,SW,224,4.0,12.0,20,0.00,,,0.00,,2013-02-27 19:51:00,
2013-02-27 12:21:00,52.0,12.0,-100.00,West,271,4.0,10.0,20,0.00,,,0.00,,2013-02-27 20:21:00,
2013-02-27 12:31:00,52.0,12.0,-100.00,West,271,4.0,10.0,20,0.00,,,0.00,,2013-02-27 20:31:00,
2013-02-27 12:41:00,52.0,12.0,-100.00,West,271,4.0,10.0,20,0.00,,,0.00,,2013-02-27 20:41:00,
2013-02-27 12:52:00,52.0,12.0,-100.00,West,271,4.0,10.0,20,0.00,,,0.00,,2013-02-27 20:52:00,
2013-02-27 13:11:00,52.0,10.0,-100.00,WNW,287,5.0,9.0,18,0.00,,,-99.99,,2013-02-27 21:11:00,
2013-02-27 13:21:00,52.0,10.0,-100.00,WNW,287,5.0,9.0,18,0.00,,,-99.99,,2013-02-27 21:21:00,
2013-02-27 13:31:00,52.0,10.0,-100.00,WNW,287,5.0,9.0,18,0.00,,,-99.99,,2013-02-27 21:31:00,
2013-02-27 13:42:00,52.0,10.0,-100.00,WNW,287,5.0,9.0,18,0.00,,,-99.99,,2013-02-27 21:42:00,
2013-02-27 13:51:00,52.0,10.0,-100.00,WNW,287,5.0,9.0,18,0.00,,,-99.99,,2013-02-27 21:51:00,
2013-02-27 14:11:00,53.0,11.0,-100.00,SW,219,5.0,10.0,18,0.00,,,0.00,,2013-02-27 22:11:00,
2013-02-27 14:21:00,53.0,11.0,-100.00,SW,219,5.0,10.0,18,0.00,,,0.00,,2013-02-27 22:21:00,
2013-02-27 14:31:00,53.0,11.0,-100.00,SW,219,5.0,10.0,18,0.00,,,0.00,,2013-02-27 22:31:00,
2013-02-27 14:41:00,53.0,11.0,-100.00,SW,219,5.0,10.0,18,0.00,,,0.00,,2013-02-27 22:41:00,
2013-02-27 14:51:00,53.0,11.0,-100.00,SW,219,5.0,10.0,18,0.00,,,0.00,,2013-02-27 22:51:00,
2013-02-27 15:21:00,52.0,7.0,-100.00,SSE,163,6.0,13.0,16,0.00,,,0.00,,2013-02-27 23:21:00,
2013-02-27 15:31:00,52.0,7.0,-100.00,SSE,163,6.0,13.0,16,0.00,,,0.00,,2013-02-27 23:31:00,
2013-02-27 15:42:00,52.0,7.0,-100.00,SSE,163,6.0,13.0,16,0.00,,,0.00,,2013-02-27 23:42:00,
2013-02-27 15:52:00,52.0,7.0,-100.00,SSE,163,6.0,13.0,16,0.00,,,0.00,,2013-02-27 23:52:00,
2013-02-27 16:11:00,51.0,8.0,-100.00,West,281,4.0,9.0,17,0.00,,,0.00,,2013-02-28 00:11:00,
2013-02-27 16:21:00,51.0,8.0,-100.00,West,281,4.0,9.0,17,0.00,,,0.00,,2013-02-28 00:21:00,
2013-02-27 16:32:00,51.0,8.0,-100.00,West,281,4.0,9.0,17,0.00,,,0.00,,2013-02-28 00:32:00,
2013-02-27 16:42:00,51.0,8.0,-100.00,West,281,4.0,9.0,17,0.00,,,0.00,,2013-02-28 00:42:00,
2013-02-27 16:51:00,51.0,8.0,-100.00,West,281,4.0,9.0,17,0.00,,,0.00,,2013-02-28 00:51:00,
2013-02-27 17:21:00,49.0,16.0,-100.00,WNW,289,4.0,9.0,26,0.00,,,0.00,,2013-02-28 01:21:00,
2013-02-27 17:31:00,49.0,16.0,-100.00,WNW,289,4.0,9.0,26,0.00,,,0.00,,2013-02-28 01:31:00,
2013-02-27 17:41:00,49.0,16.0,-100.00,WNW,289,4.0,9.0,26,0.00,,,0.00,,2013-02-28 01:41:00,
2013-02-27 17:51:00,49.0,16.0,-100.00,WNW,289,4.0,9.0,26,0.00,,,0.00,,2013-02-28 01:51:00,
2013-02-27 18:11:00,38.0,20.0,-100.00,SE,143,2.0,7.0,48,0.00,,,0.00,,2013-02-28 02:11:00,
2013-02-27 18:22:00,38.0,20.0,-100.00,SE,143,2.0,7.0,48,0.00,,,0.00,,2013-02-28 02:22:00,
2013-02-27 18:31:00,38.0,20.0,-100.00,SE,143,2.0,7.0,48,0.00,,,0.00,,2013-02-28 02:31:00,
2013-02-27 18:41:00,38.0,20.0,-100.00,SE,143,2.0,7.0,48,0.00,,,0.00,,2013-02-28 02:41:00,
2013-02-27 18:51:00,38.0,20.0,-100.00,SE,143,2.0,7.0,48,0.00,,,0.00,,2013-02-28 02:51:00,
2013-02-27 19:21:00,32.0,19.0,-100.00,ESE,123,3.0,5.0,57,0.00,,,-99.99,,2013-02-28 03:21:00,
2013-02-27 19:31:00,32.0,19.0,-100.00,ESE,123,3.0,5.0,57,0.00,,,-99.99,,2013-02-28 03:31:00,
2013-02-27 19:41:00,32.0,19.0,-100.00,ESE,123,3.0,5.0,57,0.00,,,-99.99,,2013-02-28 03:41:00,
2013-02-27 19:51:00,32.0,19.0,-100.00,ESE,123,3.0,5.0,57,0.00,,,-99.99,,2013-02-28 03:51:00,
2013-02-27 20:11:00,31.0,18.0,-100.00,ESE,121,3.0,4.0,59,0.00,,,0.00,,2013-02-28 04:11:00,
2013-02-27 20:21:00,31.0,18.0,-100.00,ESE,121,3.0,4.0,59,0.00,,,0.00,,2013-02-28 04:21:00,
2013-02-27 20:31:00,31.0,18.0,-100.00,ESE,121,3.0,4.0,59,0.00,,,0.00,,2013-02-28 04:31:00,
2013-02-27 20:41:00,31.0,18.0,-100.00,ESE,121,3.0,4.0,59,0.00,,,0.00,,2013-02-28 04:41:00,
2013-02-27 20:51:00,31.0,18.0,-100.00,ESE,121,3.0,4.0,59,0.00,,,0.00,,2013-02-28 04:51:00,
2013-02-27 21:11:00,31.0,19.0,-100.00,ESE,119,3.0,4.0,60,0.00,,,0.00,,2013-02-28 05:11:00,
2013-02-27 21:22:00,31.0,19.0,-100.00,ESE,119,3.0,4.0,60,0.00,,,0.00,,2013-02-28 05:22:00,
2013-02-27 21:31:00,31.0,19.0,-100.00,ESE,119,3.0,4.0,60,0.00,,,0.00,,2013-02-28 05:31:00,
2013-02-27 21:42:00,31.0,19.0,-100.00,ESE,119,3.0,4.0,60,0.00,,,0.00,,2013-02-28 05:42:00,
2013-02-27 21:51:00,31.0,19.0,-100.00,ESE,119,3.0,4.0,60,0.00,,,0.00,,2013-02-28 05:51:00,
2013-02-27 22:11:00,30.0,16.0,-100.00,ESE,118,4.0,5.0,56,0.00,,,0.00,,2013-02-28 06:11:00,
2013-02-27 22:22:00,30.0,16.0,-100.00,ESE,118,4.0,5.0,56,0.00,,,0.00,,2013-02-28 06:22:00,
2013-02-27 22:32:00,30.0,16.0,-100.00,ESE,118,4.0,5.0,56,0.00,,,0.00,,2013-02-28 06:32:00,
2013-02-27 22:41:00,30.0,16.0,-100.00,ESE,118,4.0,5.0,56,0.00,,,0.00,,2013-02-28 06:41:00,
2013-02-27 22:51:00,30.0,16.0,-100.00,ESE,118,4.0,5.0,56,0.00,,,0.00,,2013-02-28 06:51:00,
2013-02-27 23:21:00,30.0,15.0,-100.00,ESE,115,3.0,4.0,52,0.00,,,0.00,,2013-02-28 07:21:00,
2013-02-27 23:31:00,30.0,15.0,-100.00,ESE,115,3.0,4.0,52,0.00,,,0.00,,2013-02-28 07:31:00,
2013-02-27 23:41:00,30.0,15.0,-100.00,ESE,115,3.0,4.0,52,0.00,,,0.00,,2013-02-28 07:41:00,
2013-02-27 23:51:00,30.0,15.0,-100.00,ESE,115,3.0,4.0,52,0.00,,,0.00,,2013-02-28 07:51:00,